Flag for U.S.A. Weather past 2 weeks in New Orleans, Louisiana, U.S.A.

Now
61 °F

Clear.


Feels Like: 61 °F
Forecast: 58 / 77 °F
Wind: 22 mph from Northeast

Location: Lakefront Airport


UV Index: 7 (High)

Visibility: 10 mi


Pressure: 30.10 "Hg

Humidity: 81%

Dew point: 55 °F

Location of New OrleansLocation

Historic Weather in New Orleans

°F

New Orleans temperature yesterday

Maximum temperature yesterday: 71 °F (at 12:53 PM)
Minimum temperature yesterday: 62 °F (at 2:53 AM)
Average temperature yesterday: 65 °F

Past Weeks' High & Low Weather Summary

 TemperatureHumidityPressure
High82 °F (Apr 13, 12:53 PM)100% (Apr 6, 3:53 AM)30.25 "Hg (Apr 6, 3:53 AM)
Low48 °F (Apr 15, 8:53 AM)36% (Apr 15, 4:53 PM)29.64 "Hg (Apr 7, 6:53 AM)
Average65 °F75%30.01 "Hg
* Reported Apr 4 12:53 AM — Apr 19 12:53 AM, New Orleans, Weather by CustomWeather, © 2014

Note: Actual official high and low records may vary slightly from our data, if they occured in-between our weather recording intervals... More about our weather records

Advertising

Historic Weather Conditions — Data for Previous 24 hours

 ConditionsComfort  
Time TempWeatherWind HumidityBarometerVisibility
12:53 AM
Apr 19
61 °FClear.18 mph81%30.13 "Hg10 mi
11:53 PM
Apr 18
62 °FClear.17 mph80%30.14 "Hg10 mi
10:53 PM63 °FClear.13 mph78%30.13 "Hg10 mi
9:53 PM64 °FClear.17 mph78%30.11 "Hg10 mi
8:53 PM64 °FClear.17 mph78%30.08 "Hg10 mi
7:53 PM65 °FSunny.21 mph78%30.06 "Hg10 mi
6:53 PM66 °FSunny.22 mph78%30.05 "Hg10 mi
5:53 PM68 °FOvercast.17 mph76%30.06 "Hg10 mi
4:53 PM70 °FPartly sunny.8 mph71%30.05 "Hg10 mi
3:53 PM70 °FPassing clouds.12 mph71%30.04 "Hg10 mi
2:53 PM70 °FPassing clouds.15 mph71%30.04 "Hg10 mi
1:53 PM70 °FPassing clouds.16 mph71%30.06 "Hg10 mi
12:53 PM71 °FBroken clouds.15 mph71%30.06 "Hg10 mi
11:53 AM69 °FBroken clouds.8 mph79%30.07 "Hg10 mi
10:53 AM68 °FMore clouds than sun.12 mph82%30.09 "Hg10 mi
9:53 AM65 °FOvercast.10 mph87%30.08 "Hg10 mi
8:53 AM63 °FMostly cloudy.17 mph90%30.08 "Hg10 mi
7:53 AM62 °FLow clouds.17 mph93%30.09 "Hg8 mi
6:53 AM62 °FOvercast.15 mph93%30.07 "Hg10 mi
5:53 AM62 °FOvercast.13 mph93%30.05 "Hg10 mi
4:53 AM62 °FMostly cloudy.14 mph93%30.04 "Hg9 mi
3:53 AM62 °FOvercast.15 mph93%30.03 "Hg10 mi
2:53 AM62 °FLow clouds.16 mph93%30.03 "Hg10 mi
Weather by CustomWeather, © 2014

See weather overview